Regional Weather Roundup
Issued by NWS Charleston, SC

Current Version | Previous Version | Graphics & Text | Print | Product List | Glossary On
Versions: 1 2 3 4 5 6 7 8 9 10 11 12 13 14 15 16 17 18 19 20 21 22 23 24 25 26 27 28 29 30 31 32 33 34 35 36 37 38 39 40 41 42 43 44 45 46 47 48 49 50
000
ASUS42 KCHS 271627
RWRCHS

REGIONAL WEATHER ROUNDUP
NATIONAL WEATHER SERVICE CHARLESTON SC
1200 PM EDT SAT MAY 27 2017

NOTE: "FAIR" INDICATES FEW OR NO CLOUDS BELOW 12,000 FEET WITH NO
SIGNIFICANT WEATHER AND/OR OBSTRUCTIONS TO VISIBILITY.

NOT ALL STATIONS ARE QUALITY CONTROLLED. USE DATA WITH CAUTION...
ESPECIALLY DEWPOINT OBSERVATIONS.

SCZ027-030-031-034>040-042>050-271700-
...SOUTHEAST SOUTH CAROLINA...

CITY           SKY/WX    TMP DP  RH WIND       PRES   REMARKS
N CHARLESTON   MOSUNNY   85  65  51 W8        30.01S
WATERFRONT PRK   N/A     82  66  58 SW7       29.99S
JOHNS ISLAND   FAIR      86  66  51 SW7       30.01F
PINOPOLIS        N/A     81  70  69 SW6       29.93F
MONCKS CORNER  FAIR      84  63  48 W7        30.00S
SUMMERVILLE    FAIR      84  64  51 W6        30.01S
BEAUFORT MCAS  SUNNY     87  65  47 W14       30.03S
BEAUFORT ARPT  FAIR      84  64  51 W12       30.03S
HILTON HEAD IS SUNNY     86  63  45 SW9       30.04S
WALTERBORO     SUNNY     86  63  45 W12       30.02S
ALLENDALE      FAIR      86  64  48 VRB6G13   30.01S

...SOUTHERN MIDLANDS AND PEE DEE...

CITY           SKY/WX    TMP DP  RH WIND       PRES   REMARKS
GEORGETOWN     FAIR      84  64  51 SW8       30.00F
KINGSTREE      FAIR      84  63  48 SW10      29.98F
ORANGEBURG     SUNNY     85  64  49 W13       30.00S
BARNWELL       FAIR      88  66  48 W8G14     30.02S HX  90
AIKEN          FAIR      84  63  48 W14G22    30.05S
MANNING        FAIR      84  70  61 SW18G24   29.99F
COLUMBIA       MOSUNNY   88  64  44 W14       29.99R
SUMTER         SUNNY     87  65  48 W10       29.96S
FLORENCE       SUNNY     85  66  53 W14       29.97S
MYRTLE BEACH   NOT AVBL
N MYRTLE BEACH SUNNY     82  68  62 S14       29.97F

$$

GAZ063-065-086>088-099>101-113>116-118-119-134>141-150-271700-
...SOUTHEAST GEORGIA...

CITY           SKY/WX    TMP DP  RH WIND       PRES   REMARKS
SAVANNAH ARPT  MOSUNNY   88  61  40 W8        30.04S
HUNTER AAF     SUNNY     87  70  56 W7        30.02S HX  91
FORT STEWART   SUNNY     86  62  45 SW8       30.03R
STATESBORO     SUNNY     86  65  50 W9        30.05S
SYLVANIA       SUNNY     87  67  52 W7        30.05S
CLAXTON        FAIR      86  69  56 SW7       30.05S

...CSRA...CENTRAL AND FAR SOUTHEAST GEORGIA...

CITY           SKY/WX    TMP DP  RH WIND       PRES   REMARKS
THOMSON        SUNNY     84  62  46 NW12G18   30.08F
AUGUSTA-BUSH   SUNNY     90  64  42 W12       30.01R HX  91
AUGUSTA-DANIEL SUNNY     87  60  40 W9G16     30.03R
SWAINSBORO     FAIR      84  63  48 SW12G18   30.06S
VIDALIA        SUNNY     84  64  51 NW8       30.07R
EASTMAN        FAIR      85  46  25 SW7       30.10S
HAZLEHURST     FAIR      86  64  48 SW5       30.06S
ALMA           MOSUNNY   85  63  47 SW9       30.07R
WAYCROSS       SUNNY     88  67  48 W6        30.07S HX  91
JESUP          FAIR      88  59  37 W7        30.06S
BAXLEY         FAIR      86  68  54 W7        30.06F
BRUNSWICK      SUNNY     88  64  45 SW9       30.06S
SAINT SIMONS   LGT RAIN  85  62  46 SW8       30.05S

$$

SCZ027-028-034-036>038-045-046-048>050-GAZ119-141-271700-
...LAKE AND SUPPLEMENTAL COASTAL OBSERVATIONS...

STATION/POSITION TIME  TEMP    WIND        PRES    WAVE   SWELL
                       AIR SEA DIR/SP/G            HT/PER HT/PER/DIR
                 (UTC) (F)     (DEG/KT/KT) (MB)    (FT/S) (FT/S/D)
WINYAH BAY       1530   82     250/  6     1015.0F
LAKE MURRAY      1550   81     270/ 11/ 18 1014.9R
ACE BASIN NERRS  1545   83     210/  2     1017.0S
FORT PULASKI     1600   83     260/  6/ 10 1017.4
SAPELO ISLAND    1600   83     240/  5     1018.0

$$

ANZ835-935-AMZ111-154-330-350-352-354-370-450-454-472-271700-
...C-MAN AND BUOY OBSERVATIONS...

STATION/POSITION TIME  TEMP    WIND        PRES    WAVE   SWELL
                       AIR SEA DIR/SP/G            HT/PER HT/PER/DIR
                 (UTC) (F)     (DEG/KT/KT) (MB)    (FT/S) (FT/S/D)
BUOY 41004       1610   75 75  230/ 14/ 16 1016.4
BUOY 41008       1550   76 78  230/  8/ 10 1017.5R   2/ 8   2/ 90/ 8
FOLLY BEACH CMAN 1600   78     210/ 15/ 17 1017.0F
CAPERS NEARSHORE 1608   81 76  230/ 16/ 19 1015.9F
FRIPP NEARSHORE  1608   78 77  220/  8/ 10 1016.9F


STATION/POSITION TIME  TEMP    WIND        PRES    WAVE   SWELL
                       AIR SEA DIR/SP/G            HT/PER HT/PER/DIR
                 (UTC) (F)     (DEG/KT/KT) (MB)    (FT/S) (FT/S/D)
5E ST. MARYS GA  1600      79                N/A     1/ 8
FRYING PAN BUOY  1610   75 75  230/ 14/ 16 1015.4
BUOY 41025       1550   76 78  220/ 12/ 12 1014.3F   3/ 7   3/160/ 7
CAPE LOOKOUT NC  1600   77     230/ 11/ 14 1014.3F
BUOY 41002       1550   76 77  250/ 10/ 12 1017.3R   3/ 7   3/170/ 7
BUOY 41010       1610   79 79  240/  2/  4 1018.8
ST AUGUSTINE FL  1600   76 77   80/  6/  6 1019.5R


$$




USA.gov is the U.S. government's official web portal to all federal, state and local government web resources and services.